Погода в Герате

Афганистан     34°20′49″N   62°12′15″E
темп.,
°C
ветер,
м/с
пор.,
м/с
влажн.,
%
обл.,
%
осадки,
мм/ч
давл.,
гПа
погр.,
м
13 июня, вс
вс1301:30+26всв33200 0.0 100532
04:30+24всв33220 0.0 100520
07:30+29св35180 0.0 1006323
10:30+35св1011120 0.0 10052155
13:30+37св101080 0.0 10042467
16:30+36св101190 0.0 10032308
19:30+32св813110 0.0 1004402
22:30+28всв510140 0.0 1004153
14 июня, пн
пн1401:30+25всв45160 0.0 100457
04:30+24всв44160 0.0 100439
07:30+29всв34120 0.0 1005294
10:30+35св89100 0.0 10041993
13:30+37св9990 0.0 10022171
16:30+36св1212981 0.0 10021869
19:30+32св1115115 0.0 1003793
22:30+28св712110 0.0 1005299
15 июня, вт
вт1501:30+25ссв46130 0.0 100693
04:30+22ссз23133 0.0 100715
07:30+26ссв37100 0.0 1009788
10:30+31ссв101290 0.0 10072086
13:30+32ссв111360 0.0 10052224
16:30+32ссв121360 0.0 10042216
19:30+27ссв91470 0.0 1005492
22:30+24ссв61180 0.0 1007209
16 июня, ср
ср1601:30+21св44100 0.0 100642
04:30+18св22130 0.0 100711
07:30+23св24100 0.0 1008307
10:30+30ссв81060 0.0 10061955
13:30+33ссв111250 0.0 10042188
16:30+32ссв111260 0.0 10042354
19:30+28ссв81380 0.0 1006335
22:30+26ссв915110 0.0 1007455
17 июня, чт
чт1701:30+23ссв511130 0.0 1006180
04:30+21св34160 0.0 100642
07:30+26св712130 0.0 10061354
10:30+30ссв111290 0.0 10052043
13:30+33ссв131380 0.0 10032409
16:30+33ссв121280 0.0 10022750
19:30+29ссв812100 0.0 1004275
22:30+27св815110 0.0 1005437